Wind_Speed
51 53 52 49 48 47 46 47 47 47 48 50 50 48 46 46 46 44 42 41 40 38 38 38 38 37 36 36 36 35 35 35 36 36 36 36 36 36 35 35 35 34 34 33
54 54 49 48 48 48 48 48 47 47 48 50 50 50 48 47 47 46 44 43 42 41 41 41 40 39 38 38 38 38 38 38 38 38 38 38 38 37 36 36 35 35 34 34
54 49 47 49 49 49 48 48 47 46 47 50 52 52 50 49 48 47 46 45 44 43 43 43 42 41 41 40 41 41 41 40 40 40 40 39 38 38 37 36 36 35 35 35
53 50 50 50 50 49 49 46 46 46 48 49 51 55 51 50 48 48 47 45 45 45 45 44 44 43 42 42 43 43 42 42 41 41 40 39 39 38 37 37 36 35 35 35
53 50 51 51 49 48 47 45 46 46 48 50 50 55 53 50 48 47 46 45 45 45 45 44 44 43 42 42 43 43 43 42 41 41 40 40 39 38 38 37 36 36 35 35
52 50 50 49 47 47 46 46 47 48 50 54 50 52 55 48 46 43 43 43 44 45 44 44 44 43 43 42 42 43 42 42 41 41 40 40 39 39 38 37 36 36 36 36
54 53 51 50 49 49 49 48 48 50 52 54 49 51 54 48 44 42 42 43 43 44 44 44 44 43 43 42 42 42 42 42 41 41 40 40 39 39 38 37 37 37 36 36
55 55 52 51 50 49 49 50 50 51 51 50 48 51 49 47 44 42 41 42 42 43 44 43 43 43 42 42 42 42 42 41 41 41 40 40 39 39 38 37 37 37 37 37
54 54 51 51 49 49 50 50 47 48 49 50 51 50 47 44 42 40 39 39 40 41 42 42 42 42 41 41 41 40 40 40 40 40 40 39 39 39 38 38 38 37 37 37
51 52 53 51 51 51 50 48 48 49 50 51 51 49 47 43 41 39 37 37 38 39 40 40 41 41 41 40 40 40 39 39 38 39 39 39 39 38 38 38 37 37 37 37
50 51 52 52 53 51 51 52 51 51 51 50 50 48 44 42 40 38 36 36 36 36 37 38 38 38 39 39 39 39 38 38 38 38 38 38 38 38 38 38 37 37 37 37
50 51 52 51 49 48 48 49 50 51 51 50 49 47 42 42 40 37 35 34 34 34 35 35 36 36 37 37 37 37 37 37 37 37 37 37 37 37 37 37 37 37 37 37
50 52 52 52 52 50 50 50 49 49 49 50 50 46 41 42 41 39 36 35 34 34 34 34 34 35 35 35 36 36 36 36 36 36 37 37 37 37 37 37 37 37 38 39
50 53 54 54 52 50 51 51 50 50 51 50 48 44 41 40 39 38 36 35 35 34 34 34 34 34 34 34 35 35 34 35 35 35 36 36 36 36 37 37 38 38 38 39
51 52 52 52 52 51 50 49 50 51 49 48 44 43 40 40 40 40 38 36 35 35 34 33 33 33 33 34 34 34 34 34 34 35 35 35 36 36 37 37 37 38 38 39
52 53 52 51 51 53 53 50 48 48 48 47 45 43 39 40 41 41 39 36 34 34 34 33 33 33 32 33 33 33 33 33 34 34 34 35 36 36 36 37 37 38 38 39
54 53 53 54 52 53 55 50 48 47 46 46 45 39 38 40 41 40 39 37 35 34 34 33 33 32 32 32 32 32 32 33 33 33 34 34 35 35 36 36 37 38 39 40
54 54 53 54 54 56 53 48 47 47 45 43 42 40 40 39 39 39 39 38 36 34 33 33 33 33 32 32 32 32 33 33 33 33 34 34 34 35 36 36 37 38 39 40
54 54 54 54 55 55 51 48 46 45 44 41 41 40 40 39 40 39 37 37 36 35 33 33 33 33 32 32 33 33 33 33 33 33 33 34 34 35 36 36 38 39 40 41
52 52 53 53 53 53 49 45 44 44 44 39 39 39 39 40 41 35 34 35 34 34 33 33 32 32 32 32 33 33 33 33 33 33 34 34 35 36 37 38 39 39 41 42
49 50 51 52 52 50 45 45 44 44 40 36 38 38 40 40 38 35 35 34 33 33 33 33 32 31 31 32 32 32 32 33 33 33 34 34 35 36 37 38 39 40 41 42
46 47 49 51 52 48 42 44 44 41 38 37 37 37 38 38 37 37 36 34 33 33 32 32 31 31 31 31 32 32 32 32 33 34 34 35 35 37 38 39 39 40 41 42
45 44 45 46 45 43 43 44 42 40 39 38 37 36 36 36 36 36 35 34 33 32 31 31 30 30 31 31 31 32 32 33 33 34 34 35 36 37 38 38 39 40 41 43
45 44 44 45 44 43 42 43 40 39 38 37 36 35 35 34 34 34 34 33 32 31 30 30 30 30 31 31 32 32 32 33 33 34 35 35 36 37 37 38 40 41 42 43
44 44 44 44 42 43 43 41 39 38 38 36 35 33 33 34 34 33 32 32 32 32 31 31 31 31 31 32 32 32 33 33 34 35 35 36 36 37 38 39 40 41 42 44
44 43 43 43 41 42 42 41 40 40 39 37 35 34 33 33 34 34 33 32 32 32 31 31 31 31 31 32 32 33 33 34 34 35 36 36 37 38 39 40 41 42 43 44
Wind_Direction
236 237 237 239 241 242 242 242 242 242 243 243 244 244 243 245 246 247 248 249 251 253 255 258 260 262 265 267 269 270 272 275 276 278 279 279 280 280 281 282 283 283 283 282
236 237 238 239 239 240 240 242 243 243 245 246 246 246 245 245 247 249 249 250 252 254 256 259 260 262 265 266 268 270 272 274 275 277 277 278 278 279 280 281 281 281 281 281
238 239 239 239 239 240 240 242 244 245 246 248 248 247 247 247 248 249 250 252 254 256 258 259 261 263 265 267 269 270 272 273 274 275 276 276 277 278 278 279 279 279 280 281
238 235 236 237 238 240 241 242 244 246 247 247 249 250 245 247 249 250 252 253 255 256 258 260 262 264 265 266 267 269 271 272 273 274 275 275 276 276 276 277 278 279 279 280
237 236 236 238 239 240 242 242 244 246 247 248 248 252 248 248 249 252 254 255 256 257 259 261 262 264 264 265 266 268 269 270 271 272 273 274 274 275 275 276 277 278 278 279
236 235 237 238 239 240 241 242 244 245 247 248 247 252 253 251 252 253 255 256 257 258 259 261 262 263 264 265 266 267 268 269 269 271 271 272 273 273 273 274 275 277 278 279
234 234 235 235 236 237 238 239 241 244 246 249 250 252 254 255 255 255 255 256 258 259 260 261 263 264 264 265 265 266 267 267 268 269 270 270 271 272 272 273 274 275 276 278
235 235 235 237 238 239 240 241 242 246 250 254 254 254 254 257 258 257 257 257 258 260 261 262 262 263 264 264 264 265 266 266 267 267 268 269 270 271 271 273 273 274 275 277
236 237 237 239 239 240 240 242 245 248 250 253 254 256 254 255 258 258 258 258 258 259 260 261 262 262 262 263 264 264 265 265 265 266 266 267 269 270 271 272 273 274 275 276
235 237 237 237 237 237 239 242 242 244 247 250 252 254 256 258 259 259 259 259 259 259 260 260 261 262 262 263 263 263 264 264 264 265 266 267 268 269 270 272 273 273 274 275
229 233 236 237 236 236 237 238 240 242 245 248 252 254 256 259 260 261 260 259 259 259 260 260 261 261 261 262 262 262 263 263 263 264 265 266 267 268 270 272 271 272 273 276
227 229 232 234 236 237 238 240 242 243 245 248 252 252 254 258 260 261 262 261 259 259 259 259 260 260 261 261 262 262 262 262 262 262 263 264 266 267 268 269 270 271 274 276
224 226 228 229 230 231 234 236 238 241 243 245 247 250 249 254 258 260 260 261 260 260 259 259 259 260 260 261 261 262 261 262 262 262 263 264 265 266 267 268 269 272 274 277
223 226 227 230 233 235 236 237 238 239 242 245 247 250 251 254 256 258 260 260 260 259 259 259 260 259 259 260 260 261 261 262 262 263 264 264 265 265 267 268 270 272 275 277
221 224 226 229 232 235 236 236 237 240 243 246 248 248 249 254 257 258 258 259 259 259 259 259 259 259 260 260 260 260 261 262 263 263 264 264 265 266 268 269 271 274 276 278
220 223 224 225 228 233 236 235 236 239 241 243 244 244 245 248 253 256 257 259 259 259 259 259 259 260 260 260 260 261 262 262 263 264 265 265 266 267 269 270 272 275 277 278
222 223 225 225 227 230 232 234 237 239 241 243 245 245 245 248 251 255 257 259 259 258 258 259 259 259 260 260 260 261 262 263 264 265 266 267 267 268 270 272 274 275 278 281
222 222 224 226 228 233 234 235 238 241 242 244 245 244 244 247 250 253 255 256 258 257 257 257 257 258 259 260 260 261 262 263 264 266 266 267 269 270 272 274 276 278 280 283
222 223 225 226 229 233 233 234 237 240 241 242 243 242 243 246 248 250 253 256 256 257 257 256 256 256 257 258 259 260 262 263 265 266 267 269 270 272 273 275 277 279 281 283
223 224 226 227 230 232 233 234 237 240 240 239 243 242 242 245 248 250 253 255 255 255 255 255 254 254 256 257 259 261 262 263 264 266 267 269 271 273 275 277 279 281 283 284
223 224 226 228 231 232 231 232 235 239 240 242 243 241 242 244 248 248 250 252 253 253 253 253 253 254 256 258 259 260 261 263 265 266 268 270 273 275 276 278 280 282 283 285
222 224 226 228 232 230 230 232 235 239 240 242 241 241 241 243 245 246 248 250 252 252 251 252 252 254 256 257 259 260 261 263 265 267 270 272 274 276 278 279 281 282 284 286
221 223 226 230 233 232 231 233 235 236 237 239 240 239 241 242 243 245 248 249 250 250 250 251 252 253 255 257 259 261 262 265 267 269 271 273 276 278 279 281 282 284 285 287
221 222 225 227 227 229 230 230 233 235 236 237 238 239 239 240 242 243 244 246 247 248 249 250 252 254 256 258 260 262 264 265 267 270 272 275 277 279 280 282 284 285 287 288
221 223 224 224 224 226 227 228 230 232 234 235 236 238 239 240 240 241 243 245 246 248 250 252 254 256 257 259 261 263 265 266 269 271 274 276 278 280 282 283 285 286 288 290
220 223 223 223 223 226 226 228 230 231 232 234 236 238 239 240 240 241 243 245 246 248 250 252 254 256 258 260 261 263 265 268 270 273 275 277 279 281 283 284 286 287 289 291
Height
5707 5712 5719 5727 5732 5738 5741 5744 5748 5753 5755 5758 5761 5766 5772 5775 5778 5782 5786 5789 5792 5794 5796 5797 5799 5801 5802 5803 5804 5805 5805 5805 5805 5805 5805 5804 5803 5803 5802 5801 5799 5798 5797 5796
5695 5702 5714 5717 5721 5725 5729 5733 5738 5743 5745 5748 5751 5756 5761 5766 5769 5773 5777 5780 5783 5786 5788 5790 5791 5793 5794 5795 5796 5797 5798 5798 5798 5797 5797 5796 5796 5795 5794 5793 5792 5791 5790 5789
5685 5699 5704 5706 5710 5715 5719 5725 5730 5733 5736 5737 5740 5745 5751 5757 5760 5764 5768 5771 5775 5777 5779 5781 5783 5785 5786 5787 5788 5788 5789 5789 5789 5789 5789 5788 5788 5787 5786 5785 5784 5783 5782 5781
5674 5685 5690 5693 5699 5705 5710 5717 5720 5722 5724 5727 5731 5732 5742 5746 5751 5755 5759 5762 5765 5768 5770 5772 5774 5776 5778 5778 5778 5779 5780 5780 5780 5780 5780 5780 5780 5779 5778 5777 5776 5776 5775 5773
5664 5674 5678 5683 5692 5697 5702 5707 5709 5712 5713 5716 5721 5721 5730 5737 5742 5746 5750 5753 5755 5758 5760 5762 5764 5766 5768 5769 5769 5770 5770 5771 5771 5772 5772 5771 5771 5771 5770 5769 5768 5768 5767 5765
5656 5663 5668 5675 5683 5687 5692 5696 5698 5700 5701 5704 5713 5712 5716 5727 5733 5738 5741 5743 5745 5748 5750 5752 5754 5756 5758 5759 5760 5760 5761 5762 5762 5762 5762 5763 5762 5762 5761 5761 5760 5759 5758 5757
5644 5650 5657 5664 5670 5675 5680 5684 5687 5688 5689 5695 5704 5703 5709 5718 5724 5728 5731 5733 5735 5737 5740 5742 5744 5746 5748 5749 5750 5751 5751 5752 5753 5753 5753 5753 5753 5753 5753 5752 5752 5751 5750 5749
5632 5638 5648 5654 5660 5666 5670 5674 5678 5681 5684 5689 5692 5693 5703 5708 5713 5717 5720 5723 5725 5727 5730 5732 5734 5736 5738 5739 5740 5741 5742 5743 5743 5744 5744 5744 5744 5744 5744 5744 5743 5742 5741 5740
5621 5631 5640 5644 5651 5655 5659 5663 5671 5673 5675 5678 5680 5685 5693 5698 5702 5706 5710 5713 5715 5717 5719 5721 5723 5725 5727 5729 5730 5731 5732 5733 5733 5734 5734 5735 5735 5735 5735 5735 5734 5734 5733 5731
5612 5619 5626 5632 5637 5642 5649 5655 5658 5660 5663 5666 5671 5677 5684 5689 5693 5697 5700 5703 5705 5707 5709 5711 5713 5715 5717 5719 5720 5721 5722 5723 5724 5724 5725 5725 5726 5726 5726 5725 5725 5725 5724 5722
5601 5606 5613 5617 5622 5633 5638 5642 5645 5650 5654 5658 5662 5671 5677 5680 5683 5687 5690 5693 5695 5697 5699 5701 5703 5705 5707 5708 5710 5711 5712 5713 5714 5715 5716 5716 5716 5717 5716 5716 5716 5715 5715 5714
5589 5594 5599 5607 5615 5621 5626 5631 5636 5641 5646 5650 5654 5663 5668 5670 5674 5677 5680 5683 5686 5688 5690 5692 5694 5695 5697 5699 5700 5701 5703 5704 5705 5705 5706 5707 5707 5707 5707 5707 5707 5706 5706 5704
5577 5581 5587 5594 5601 5608 5613 5619 5625 5630 5635 5638 5643 5654 5661 5662 5665 5668 5672 5674 5677 5678 5681 5683 5684 5686 5688 5689 5691 5692 5693 5694 5695 5696 5697 5698 5698 5698 5698 5698 5698 5697 5696 5695
5563 5568 5576 5583 5592 5599 5604 5610 5615 5619 5622 5629 5636 5646 5651 5653 5656 5659 5662 5665 5667 5669 5671 5674 5675 5677 5679 5680 5681 5683 5684 5685 5686 5687 5688 5688 5689 5689 5689 5689 5688 5688 5687 5686
5550 5557 5565 5574 5582 5587 5592 5599 5604 5608 5615 5622 5630 5636 5643 5645 5647 5649 5652 5655 5658 5660 5662 5664 5666 5668 5669 5671 5672 5674 5675 5676 5677 5678 5678 5679 5679 5679 5679 5679 5679 5678 5677 5676
5539 5547 5555 5562 5570 5574 5579 5586 5592 5599 5606 5612 5619 5625 5634 5636 5637 5639 5642 5646 5649 5651 5653 5655 5657 5659 5660 5662 5663 5665 5666 5667 5667 5668 5669 5670 5670 5670 5670 5670 5669 5668 5667 5666
5528 5537 5544 5551 5559 5561 5566 5578 5585 5591 5598 5604 5609 5620 5624 5625 5628 5631 5634 5636 5639 5642 5644 5646 5648 5650 5651 5653 5654 5655 5656 5657 5658 5659 5660 5660 5661 5661 5661 5660 5659 5659 5657 5656
5519 5526 5532 5540 5547 5548 5563 5573 5577 5582 5589 5595 5601 5608 5612 5616 5618 5621 5624 5627 5629 5632 5635 5637 5639 5640 5642 5643 5645 5646 5647 5648 5649 5650 5651 5651 5651 5651 5651 5650 5650 5649 5647 5646
5509 5516 5522 5529 5533 5540 5553 5563 5569 5573 5579 5587 5592 5598 5602 5605 5607 5611 5615 5618 5620 5623 5625 5628 5629 5631 5633 5634 5636 5637 5638 5639 5640 5641 5641 5642 5642 5641 5641 5640 5639 5638 5637 5635
5500 5506 5512 5518 5524 5531 5548 5557 5560 5564 5569 5579 5582 5587 5591 5593 5597 5605 5607 5608 5611 5613 5616 5618 5620 5622 5623 5625 5626 5628 5629 5630 5631 5631 5632 5632 5632 5632 5631 5630 5629 5628 5626 5624
5489 5494 5501 5508 5514 5524 5539 5546 5549 5555 5566 5571 5572 5576 5580 5583 5589 5595 5596 5599 5601 5604 5606 5608 5610 5612 5614 5616 5617 5619 5620 5621 5621 5622 5622 5622 5622 5622 5621 5620 5618 5617 5615 5613
5479 5486 5494 5500 5506 5520 5532 5535 5540 5548 5555 5559 5562 5566 5570 5575 5579 5582 5586 5589 5592 5594 5597 5599 5601 5603 5605 5607 5608 5609 5611 5612 5612 5612 5612 5612 5612 5611 5610 5609 5608 5606 5604 5602
5470 5479 5486 5493 5504 5515 5520 5526 5531 5537 5543 5548 5552 5557 5561 5565 5569 5573 5577 5580 5583 5586 5588 5590 5592 5594 5596 5597 5599 5600 5601 5602 5602 5603 5603 5602 5602 5601 5600 5598 5597 5595 5593 5590
5463 5470 5476 5483 5494 5503 5509 5515 5521 5527 5533 5538 5543 5548 5552 5556 5560 5564 5568 5571 5574 5577 5579 5581 5583 5585 5587 5588 5590 5591 5592 5592 5593 5593 5593 5592 5591 5590 5589 5588 5586 5584 5581 5578
5453 5459 5466 5475 5485 5492 5498 5505 5512 5518 5523 5529 5534 5539 5543 5547 5551 5555 5559 5562 5565 5568 5571 5573 5575 5576 5578 5579 5580 5581 5582 5583 5583 5583 5582 5582 5581 5580 5578 5576 5574 5572 5569 5566
5445 5453 5460 5469 5478 5483 5491 5497 5502 5508 5514 5520 5525 5530 5534 5539 5543 5547 5550 5553 5556 5559 5562 5564 5566 5567 5569 5570 5571 5572 5573 5573 5573 5573 5572 5571 5570 5569 5567 5565 5563 5560 5557 5554